Location: ????
(33.1659°N, 35.6604°E)
Time: 18:40:53
(UTC+00:00)

MOS 1 - Pass Details

Date: 20 September 2019
Orbit: 878 x 892 km, 99.2° (Epoch: 19 October)

Event Time Altitude Azimuth Distance (km) Brightness Sun altitude
Exits shadow 16:45:03 - 151° (SSE) 2,870 6.6 -14.9°
Reaches altitude 10° 16:45:53 10° 150° (SSE) 2,550 6.3 -15.0°
Maximum altitude 16:51:26 57° 73° (ENE) 1,044 4.4 -16.2°
Drops below altitude 10° 16:57:00 10° 356° (N) 2,558 6.9 -17.3°
Sets 16:59:25 0° 352° (N) 3,499 7.7 -17.8°
